STARLINK-32449, 61670

Orbit data source: Space-Track

STARLINK-32449, 61670 is a payload satellite owned by SpaceX/Seattle (US) in LEO that was launched on Sat, 26 Oct 2024 UTC via an FALCON 9 launch vehicle from the Air Force Eastern Test Range (AFETR). Payload-class satellites include a variety of spacecraft equipped with specific instruments for various scientific and technological missions. These include communications satellites like Starlink; space stations such as the ISS; scientific satellites like the Hubble; Earth observation satellites from companies like Planet Labs, Umbra, and HawkEye 360; GPS; miniature CubeSats for education and research; and military/defense satellites.

Loading next visibility...
Identifier
61670, 2024-193K
Orbit
LEO
Country
Flag of USUS
Related business
Manufacturer
SpaceX/Seattle
Mission
Operational Commercial Communications
Bus & Motor
STARLINK V2M, Unknown motor
Mass
730 kg wet, ~700 kg dry
Launch date (UTC)
2024-10-26 (2 years ago)
Launch vehicle
FALCON 9
Launch site
Air Force Eastern Test Range (AFETR)
Object type
Payload
Rocket body
Debris
Shape & HBR
Box + 2 Pan, 17.7 m
Radar Cross Section
33.884 m², Large (>1 m²)

Expand to show TLE details & history
Last TLE update: 11 hours ago

TLE from 11 hours ago
0 STARLINK-32449
1 61670U 24193K   26127.97979264  .00002157  00000-0  85017-4 0  9990
2 61670  53.1590 175.6533 0001037  96.0072 264.1047 15.30169008 85606
Epoch: 2026-05-07T23:30Z
TLE epoch observation values (Epoch: 2026-05-07T23:30:54.084Z)
Latitude
Longitude
-42.89021°
Altitude
476.28 km
Speed
7.629 km/s
True Right ascension
11h 42m 36s
True Declination
0° 00' 00"
Sunlit
Object was in full shadow at epoch
Visualization orbit readout
Latitude
Unknown
Longitude
Unknown
Altitude
Unknown
Speed
Unknown
Apparent Right ascension
Unknown
Apparent Declination
Unknown
Sunlit
N/A
Visualization observer readout
Local Sidereal Time
19:01:12
Azimuth
Unknown
Elevation
Unknown
Doppler factor
Unknown
Orbital elements
Apogee altitude
476.275 km
Perigee altitude
474.853 km
Semi-major axis
6,853.701 km
Eccentricity
0.0001
Inclination
53.159°
RAAN
175.6533°
Arg. of periapsis
96.0072°
True anomaly
264.09288°
Mean anomaly
264.1047°
Eccentric anomaly
264.09879°
Mean motion
3.82521 °/min
Orbital period
94.11 mins
BSTAR
0.000085017
Loading maneuver chart data...
Computing Atmospheric mass density...
Loading historical data...
Loading historical data...
Loading historical data...
Loading historical data...
Loading historical data...
Loading historical data...
Loading historical data...

Documentation

Showing up to 5 results
|